When you browse on this site, cookies collect data to enhance your experience and personalize the content and advertising you see.
Visit our Privacy Policy to learn more. By continuing to use the site, you agree to this use of cookies and data.
  • In Spain
  • List of Countries
  • For 7 days
  • Water Temperature
  • Weather Map
  • Weather Widgets
  • user-avatar
    Login

    Hourly Weather Tynda

    Today, 5 June, Friday

    Time Temperature Precipitation Wind Pressure Humidity
    00:00 +7°C° 0 mm 1 mps 701 mmHg 92%
    01:00 +6°C° 0 mm 1 mps 701 mmHg 93%
    02:00 +5°C° 0 mm 1 mps 701 mmHg 95%
    03:00 +6°C° 0 mm 1 mps 701 mmHg 94%
    04:00 +6°C° 0 mm 0 mps 702 mmHg 92%
    05:00 +7°C° 0 mm 0 mps 702 mmHg 91%
    06:00 +9°C° 0 mm 0 mps 702 mmHg 82%
    07:00 +11°C° 0 mm 0 mps 702 mmHg 73%
    08:00 +14°C° 0 mm 1 mps 702 mmHg 64%
    09:00 +16°C° 0.1 mm 1 mps 702 mmHg 57%
    10:00 +18°C° 0.1 mm 1 mps 702 mmHg 51%
    11:00 +18°C° 0.1 mm 2 mps 702 mmHg 44%
    12:00 +19°C° 0.1 mm 2 mps 702 mmHg 42%
    13:00 +19°C° 0.1 mm 2 mps 702 mmHg 39%
    14:00 +20°C° 0.1 mm 2 mps 701 mmHg 36%
    15:00 +20°C° 0 mm 2 mps 701 mmHg 36%
    16:00 +20°C° 0 mm 2 mps 701 mmHg 36%
    17:00 +20°C° 0 mm 2 mps 701 mmHg 37%
    18:00 +19°C° 0 mm 1 mps 701 mmHg 45%
    19:00 +15°C° 0 mm 1 mps 701 mmHg 53%
    20:00 +13°C° 0 mm 1 mps 701 mmHg 60%
    21:00 +12°C° 0 mm 1 mps 701 mmHg 65%
    22:00 +10°C° 0 mm 1 mps 701 mmHg 70%
    23:00 +9°C° 0 mm 1 mps 701 mmHg 75%

    Tomorrow, 6 June, Saturday

    Time Temperature Precipitation Wind Pressure Humidity
    00:00 +7°C° 0 mm 0 mps 701 mmHg 77%
    01:00 +6°C° 0 mm 0 mps 701 mmHg 79%
    02:00 +6°C° 0 mm 0 mps 701 mmHg 81%
    03:00 +7°C° 0 mm 0 mps 701 mmHg 77%
    04:00 +8°C° 0 mm 0 mps 701 mmHg 73%
    05:00 +9°C° 0 mm 0 mps 701 mmHg 68%
    06:00 +12°C° 0 mm 1 mps 701 mmHg 61%
    07:00 +15°C° 0 mm 1 mps 701 mmHg 53%
    08:00 +18°C° 0 mm 1 mps 701 mmHg 45%
    09:00 +19°C° 0 mm 1 mps 701 mmHg 41%
    10:00 +21°C° 0 mm 1 mps 701 mmHg 37%
    11:00 +22°C° 0 mm 1 mps 701 mmHg 33%
    12:00 +22°C° 0 mm 1 mps 701 mmHg 32%
    13:00 +23°C° 0 mm 1 mps 701 mmHg 30%
    14:00 +23°C° 0 mm 1 mps 700 mmHg 29%
    15:00 +23°C° 0 mm 2 mps 700 mmHg 31%
    16:00 +21°C° 0 mm 2 mps 700 mmHg 32%
    17:00 +21°C° 0 mm 2 mps 700 mmHg 34%
    18:00 +18°C° 0 mm 2 mps 700 mmHg 41%
    19:00 +16°C° 0 mm 1 mps 700 mmHg 49%
    20:00 +12°C° 0 mm 0 mps 700 mmHg 57%
    21:00 +11°C° 0 mm 0 mps 700 mmHg 60%
    22:00 +10°C° 0 mm 0 mps 700 mmHg 63%
    23:00 +9°C° 0 mm 0 mps 700 mmHg 66%

    Day after tomorrow, 7 June, Sunday

    Time Temperature Precipitation Wind Pressure Humidity
    00:00 +8°C° 0 mm 0 mps 700 mmHg 69%
    01:00 +8°C° 0 mm 0 mps 700 mmHg 72%
    02:00 +7°C° 0 mm 0 mps 700 mmHg 75%
    03:00 +8°C° 0 mm 0 mps 700 mmHg 72%
    04:00 +9°C° 0 mm 0 mps 701 mmHg 69%
    05:00 +11°C° 0 mm 0 mps 701 mmHg 66%
    06:00 +13°C° 0 mm 0 mps 701 mmHg 60%
    07:00 +16°C° 0 mm 1 mps 701 mmHg 54%
    08:00 +20°C° 0 mm 1 mps 701 mmHg 48%
    09:00 +21°C° 0 mm 1 mps 701 mmHg 43%
    10:00 +21°C° 0 mm 2 mps 701 mmHg 38%
    11:00 +23°C° 0 mm 2 mps 701 mmHg 34%
    12:00 +23°C° 0 mm 2 mps 701 mmHg 35%
    13:00 +22°C° 0 mm 3 mps 700 mmHg 36%
    14:00 +22°C° 0 mm 3 mps 700 mmHg 38%
    15:00 +22°C° 0 mm 3 mps 700 mmHg 40%
    16:00 +22°C° 0 mm 3 mps 699 mmHg 43%
    17:00 +21°C° 0 mm 3 mps 699 mmHg 45%
    18:00 +20°C° 0 mm 3 mps 699 mmHg 53%
    19:00 +18°C° 0 mm 3 mps 699 mmHg 60%
    20:00 +16°C° 0 mm 2 mps 699 mmHg 68%
    21:00 +15°C° 0 mm 2 mps 698 mmHg 71%
    22:00 +14°C° 0 mm 2 mps 698 mmHg 73%
    23:00 +14°C° 0 mm 2 mps 698 mmHg 76%

    8 June, Monday

    Time Temperature Precipitation Wind Pressure Humidity
    00:00 +13°C° 0.1 mm 2 mps 698 mmHg 79%
    01:00 +13°C° 0.1 mm 2 mps 698 mmHg 82%
    02:00 +13°C° 0.1 mm 2 mps 698 mmHg 86%
    03:00 +13°C° 0.8 mm 2 mps 697 mmHg 89%
    04:00 +13°C° 0.8 mm 2 mps 697 mmHg 92%
    05:00 +12°C° 0.8 mm 2 mps 696 mmHg 96%
    06:00 +13°C° 1 mm 2 mps 696 mmHg 96%
    07:00 +12°C° 1 mm 3 mps 696 mmHg 96%
    08:00 +12°C° 1 mm 4 mps 696 mmHg 96%
    09:00 +12°C° 1 mm 4 mps 695 mmHg 96%
    10:00 +12°C° 1 mm 4 mps 695 mmHg 96%
    11:00 +12°C° 1 mm 4 mps 695 mmHg 95%
    12:00 +12°C° 0.9 mm 3 mps 695 mmHg 95%
    13:00 +12°C° 0.9 mm 3 mps 695 mmHg 95%
    14:00 +12°C° 0.9 mm 3 mps 694 mmHg 95%
    15:00 +13°C° 0.1 mm 2 mps 694 mmHg 95%
    16:00 +13°C° 0.1 mm 2 mps 694 mmHg 95%
    17:00 +14°C° 0.1 mm 1 mps 694 mmHg 95%
    18:00 +13°C° 0 mm 1 mps 694 mmHg 96%
    19:00 +13°C° 0 mm 1 mps 693 mmHg 97%
    20:00 +13°C° 0 mm 1 mps 693 mmHg 98%
    21:00 +13°C° 0.5 mm 1 mps 692 mmHg 98%
    22:00 +13°C° 0.5 mm 1 mps 692 mmHg 99%
    23:00 +12°C° 0.5 mm 1 mps 691 mmHg 99%

    9 June, Tuesday

    Time Temperature Precipitation Wind Pressure Humidity
    00:00 +12°C° 3.5 mm 1 mps 691 mmHg 99%
    01:00 +12°C° 3.5 mm 1 mps 690 mmHg 99%
    02:00 +12°C° 3.5 mm 1 mps 689 mmHg 99%
    03:00 +12°C° 0.8 mm 1 mps 689 mmHg 99%
    04:00 +13°C° 0.8 mm 1 mps 688 mmHg 98%
    05:00 +13°C° 0.8 mm 1 mps 688 mmHg 98%
    06:00 +14°C° 0.1 mm 1 mps 688 mmHg 95%
    07:00 +15°C° 0.1 mm 1 mps 688 mmHg 92%
    08:00 +15°C° 0.1 mm 1 mps 688 mmHg 88%
    09:00 +16°C° 1 mm 1 mps 688 mmHg 86%
    10:00 +16°C° 1 mm 1 mps 688 mmHg 85%
    11:00 +18°C° 1 mm 1 mps 688 mmHg 83%
    12:00 +16°C° 1.2 mm 2 mps 688 mmHg 84%
    13:00 +14°C° 1.2 mm 3 mps 688 mmHg 84%
    14:00 +14°C° 1.2 mm 4 mps 689 mmHg 85%
    15:00 +14°C° 0.2 mm 4 mps 689 mmHg 81%
    16:00 +14°C° 0.2 mm 4 mps 689 mmHg 76%
    17:00 +14°C° 0.2 mm 5 mps 690 mmHg 72%
    18:00 +13°C° 0 mm 4 mps 690 mmHg 76%
    19:00 +12°C° 0 mm 3 mps 691 mmHg 79%
    20:00 +13°C° 0 mm 2 mps 691 mmHg 83%
    21:00 +11°C° 0 mm 3 mps 691 mmHg 84%
    22:00 +11°C° 0 mm 3 mps 691 mmHg 85%
    23:00 +10°C° 0 mm 3 mps 692 mmHg 86%

    10 June, Wednesday

    Time Temperature Precipitation Wind Pressure Humidity
    00:00 +10°C° 0 mm 2 mps 692 mmHg 86%
    01:00 +9°C° 0 mm 2 mps 692 mmHg 86%
    02:00 +9°C° 0 mm 2 mps 692 mmHg 86%
    03:00 +9°C° 0 mm 2 mps 693 mmHg 85%
    04:00 +10°C° 0 mm 2 mps 693 mmHg 83%
    05:00 +12°C° 0 mm 1 mps 693 mmHg 82%
    06:00 +13°C° 0 mm 2 mps 693 mmHg 73%
    07:00 +14°C° 0 mm 3 mps 694 mmHg 64%
    08:00 +17°C° 0 mm 4 mps 694 mmHg 55%
    09:00 +18°C° 0.2 mm 4 mps 694 mmHg 55%
    10:00 +19°C° 0.2 mm 4 mps 694 mmHg 54%
    11:00 +19°C° 0.2 mm 3 mps 694 mmHg 53%
    12:00 +19°C° 0.6 mm 4 mps 694 mmHg 57%
    13:00 +19°C° 0.6 mm 4 mps 694 mmHg 60%
    14:00 +19°C° 0.6 mm 4 mps 694 mmHg 64%
    15:00 +18°C° 0.6 mm 4 mps 694 mmHg 67%
    16:00 +17°C° 0.6 mm 4 mps 694 mmHg 71%
    17:00 +17°C° 0.6 mm 4 mps 694 mmHg 74%
    18:00 +14°C° 0 mm 3 mps 694 mmHg 78%
    19:00 +13°C° 0 mm 3 mps 694 mmHg 83%
    20:00 +11°C° 0 mm 3 mps 694 mmHg 87%
    21:00 +10°C° 0 mm 2 mps 694 mmHg 88%
    22:00 +9°C° 0 mm 2 mps 694 mmHg 90%
    23:00 +9°C° 0 mm 1 mps 694 mmHg 92%
    Show more